Location: Caltech
(34.1382°N, 118.1253°W)
Time: 06:55:13
(UTC-08:00)

Gbstr 26 Del rocket - Visible Passes

Search period start: 24 November 2014 00:00
Search period end: 04 December 2014 00:00
Orbit: 493 x 1276 km, 51.8° (Epoch: 24 November)

Date Brightness Start Highest point End Pass type
(mag) Time Alt. Az. Time Alt. Az. Time Alt. Az.
24 Nov 5.8 04:19:43 15° N 04:19:43 15° N 04:22:14 10° NNE visible
24 Nov 5.5 06:04:59 10° NNW 06:08:26 16° NNE 06:11:31 10° NE visible
25 Nov 5.9 04:17:09 14° N 04:17:09 14° N 04:19:41 10° NNE visible
25 Nov 5.4 06:02:04 10° NNW 06:05:58 18° NNE 06:09:23 10° ENE visible
26 Nov 5.9 04:14:34 14° N 04:14:34 14° N 04:17:13 10° NNE visible
26 Nov 5.2 05:59:08 10° NNW 06:03:27 21° NNE 06:07:11 10° ENE visible
27 Nov 5.9 04:11:59 15° N 04:11:59 15° N 04:14:51 10° NE visible
27 Nov 5.1 05:56:11 10° NNW 06:00:55 25° NNE 06:04:55 10° E visible
28 Nov 5.8 04:09:25 15° N 04:09:25 15° N 04:12:34 10° NE visible
28 Nov 4.8 05:53:14 10° NNW 05:58:20 30° NNE 06:02:33 10° E visible
29 Nov 5.8 04:06:52 17° N 04:06:52 17° N 04:10:20 10° NE visible
29 Nov 4.5 05:50:18 10° NW 05:55:42 38° NNE 06:00:07 10° E visible
30 Nov 5.7 04:04:21 18° NNE 04:04:21 18° NNE 04:08:07 10° NE visible
30 Nov 4.2 05:47:22 10° NW 05:53:02 48° NE 05:57:35 10° ESE visible
01 Dec 5.6 04:01:52 20° NNE 04:01:52 20° NNE 04:05:53 10° ENE visible
01 Dec 3.8 05:44:33 10° NW 05:50:18 62° NE 05:54:57 10° ESE visible
02 Dec 5.4 03:59:26 23° NNE 03:59:26 23° NNE 04:03:37 10° ENE visible
02 Dec 3.5 05:42:07 12° NW 05:47:31 81° NE 05:52:13 10° SE visible
03 Dec 5.3 03:57:03 27° NNE 03:57:03 27° NNE 04:01:17 10° E visible
03 Dec 3.4 05:39:45 15° NW 05:44:40 77° SW 05:49:22 10° SE visible
